STARLINK-31241, 59045

Orbit data source: Space-Track

STARLINK-31241, 59045 is a payload satellite owned by SpaceX/Seattle (US) in LEO that was launched on Sun, 25 Feb 2024 UTC via an FALCON 9 launch vehicle from the Air Force Eastern Test Range (AFETR). Payload-class satellites include a variety of spacecraft equipped with specific instruments for various scientific and technological missions. These include communications satellites like Starlink; space stations such as the ISS; scientific satellites like the Hubble; Earth observation satellites from companies like Planet Labs, Umbra, and HawkEye 360; GPS; miniature CubeSats for education and research; and military/defense satellites.

Loading next visibility...
Identifier
59045, 2024-038Y
Orbit
LEO
Country
Flag of USUS
Related business
Manufacturer
SpaceX/Seattle
Mission
Operational Commercial Communications
Bus & Motor
STARLINK V2M, Unknown motor
Mass
730 kg wet, ~700 kg dry
Launch date (UTC)
2024-02-25 (2 years ago)
Launch vehicle
FALCON 9
Launch site
Air Force Eastern Test Range (AFETR)
Object type
Payload
Rocket body
Debris
Shape & HBR
Box + 2 Pan, 17.7 m
Radar Cross Section
33.884 m², Large (>1 m²)

Expand to show TLE details & history
Last TLE update: 21 hours ago

TLE from 21 hours ago
0 STARLINK-31241
1 59045U 24038Y   25348.74027213 -.00000428  00000-0 -60500-5 0  9990
2 59045  43.0011 143.5444 0001333 272.7435  87.3264 15.27560802101861
Epoch: 2025-12-14T17:45Z
TLE epoch observation values (Epoch: 2025-12-14T17:45:59.512Z)
Latitude
-0°
Longitude
153.39758°
Altitude
482.84 km
Speed
7.626 km/s
True Right ascension
09h 34m 10s
True Declination
0° 00' 00"
Sunlit
Object was in full shadow at epoch
Visualization orbit readout
Latitude
Unknown
Longitude
Unknown
Altitude
Unknown
Speed
Unknown
Apparent Right ascension
Unknown
Apparent Declination
Unknown
Sunlit
N/A
Visualization observer readout
Local Sidereal Time
13:20:33
Azimuth
Unknown
Elevation
Unknown
Doppler factor
Unknown
Orbital elements
Apogee altitude
485.966 km
Perigee altitude
484.137 km
Semi-major axis
6,863.189 km
Eccentricity
0.00013
Inclination
43.0011°
RAAN
143.5444°
Arg. of periapsis
272.7435°
True anomaly
87.34166°
Mean anomaly
87.3264°
Eccentric anomaly
87.33403°
Mean motion
3.81728 °/min
Orbital period
94.31 mins
BSTAR
-0.00000605
Loading maneuver chart data...
Computing Atmospheric mass density...
Loading historical data...
Loading historical data...
Loading historical data...
Loading historical data...
Loading historical data...
Loading historical data...
Loading historical data...

Documentation

Showing up to 5 results
|